Location: Madrid
(40.4000°N, 3.6830°W)
Time: 15:47:39
(UTC+02:00)

ISS - Pass Details

Date: 13 September 2019
Orbit: 411 x 421 km, 51.6° (Epoch: 18 September)

Event Time Altitude Azimuth Distance (km) Brightness Sun altitude
Exits shadow 05:30:56 21° 22° (NNE) 1,000 -1.3 -26.4°
Drops below altitude 10° 05:33:30 10° 73° (ENE) 1,489 0.0 -25.9°
Sets 05:35:56 0° 90° (E) 2,352 1.0 -25.5°
